| time (UTC) | temp F | wind direction | speed MPH | gust MPH | rain 1hr in | rain 24hr in | rain mn in | humidity % | barometer mb |
| 20260506084836 | 53 | 355 | 6.0 | 12.0 | 0.00 | 0.00 | 0.00 | 75 | 975.5 |
| 20260506084337 | 53 | 355 | 7.0 | 12.0 | 0.00 | 0.00 | 0.00 | 75 | 975.4 |
| 20260506083832 | 53 | 0 | 6.0 | 13.0 | 0.00 | 0.00 | 0.00 | 74 | 975.5 |
| 20260506083332 | 53 | 15 | 5.0 | 13.0 | 0.00 | 0.00 | 0.00 | 74 | 975.5 |
| 20260506082833 | 53 | 27 | 6.0 | 13.0 | 0.00 | 0.00 | 0.00 | 74 | 975.6 |
| 20260506082333 | 53 | 30 | 7.0 | 13.0 | 0.00 | 0.00 | 0.00 | 74 | 975.5 |
| 20260506081833 | 53 | 36 | 7.0 | 15.0 | 0.00 | 0.00 | 0.00 | 74 | 975.5 |
| 20260506080832 | 54 | 346 | 7.0 | 12.0 | 0.00 | 0.00 | 0.00 | 74 | 975.5 |
| 20260506080336 | 54 | 0 | 7.0 | 13.0 | 0.00 | 0.00 | 0.00 | 74 | 975.4 |
| 20260506073314 | 54 | 21 | 6.0 | 13.0 | 0.00 | 0.00 | 0.00 | 74 | 975.3 |
| 20260506072808 | 54 | 17 | 6.0 | 13.0 | 0.00 | 0.00 | 0.00 | 74 | 975.3 |
| 20260506072305 | 54 | 355 | 7.0 | 14.0 | 0.00 | 0.00 | 0.00 | 74 | 975.4 |
| 20260506071756 | 54 | 47 | 8.0 | 14.0 | 0.00 | 0.00 | 0.00 | 74 | 975.3 |
| 20260506070238 | 54 | 15 | 6.0 | 10.0 | 0.00 | 0.00 | 0.00 | 74 | 975.0 |
| 20260506062150 | 55 | 27 | 6.0 | 11.0 | 0.00 | 0.00 | 0.00 | 75 | 975.2 |
| 20260506061644 | 55 | 9 | 6.0 | 12.0 | 0.00 | 0.00 | 0.00 | 75 | 975.2 |
| 20260506061139 | 55 | 32 | 6.0 | 12.0 | 0.00 | 0.00 | 0.00 | 75 | 975.1 |
| 20260506060631 | 55 | 329 | 5.0 | 11.0 | 0.00 | 0.00 | 0.00 | 76 | 975.2 |
| 20260506060126 | 55 | 48 | 4.0 | 11.0 | 0.00 | 0.00 | 0.00 | 76 | 975.2 |
| 20260506051026 | 56 | 36 | 6.0 | 12.0 | 0.00 | 0.00 | 0.00 | 75 | 975.2 |
| 20260506050519 | 56 | 350 | 6.0 | 12.0 | 0.00 | 0.00 | 0.00 | 75 | 975.3 |
| 20260506045002 | 56 | 30 | 7.0 | 15.0 | 0.00 | 0.00 | 0.00 | 75 | 975.3 |
| 20260506043951 | 56 | 15 | 8.0 | 16.0 | 0.00 | 0.00 | 0.00 | 75 | 975.3 |
| 20260506043445 | 56 | 22 | 6.0 | 15.0 | 0.00 | 0.00 | 0.00 | 75 | 975.3 |
| 20260506042939 | 56 | 13 | 7.0 | 13.0 | 0.00 | 0.00 | 0.00 | 75 | 975.4 |
| 20260506042433 | 56 | 355 | 8.0 | 17.0 | 0.00 | 0.00 | 0.00 | 76 | 975.4 |
| 20260506041926 | 56 | 343 | 8.0 | 17.0 | 0.00 | 0.00 | 0.00 | 76 | 975.2 |
| 20260506041420 | 56 | 14 | 7.0 | 16.0 | 0.00 | 0.00 | 0.00 | 76 | 975.3 |
| 20260506040914 | 56 | 59 | 8.0 | 15.0 | 0.00 | 0.00 | 0.00 | 76 | 975.2 |
| 20260506040409 | 56 | 55 | 9.0 | 15.0 | 0.00 | 0.00 | 0.00 | 76 | 975.2 |
| 20260506035903 | 56 | 0 | 8.0 | 14.0 | 0.00 | 0.00 | 0.00 | 76 | 975.2 |
| 20260506035357 | 57 | 62 | 8.0 | 15.0 | 0.00 | 0.00 | 0.00 | 76 | 975.0 |
| 20260506034855 | 57 | 63 | 7.0 | 15.0 | 0.00 | 0.00 | 0.00 | 77 | 975.0 |
| 20260506034355 | 57 | 45 | 8.0 | 15.0 | 0.00 | 0.00 | 0.00 | 77 | 975.1 |
| 20260506033853 | 57 | 107 | 10.0 | 15.0 | 0.00 | 0.00 | 0.00 | 77 | 975.1 |
| 20260506033353 | 57 | 0 | 9.0 | 17.0 | 0.00 | 0.00 | 0.00 | 77 | 975.1 |
| 20260506032852 | 57 | 65 | 8.0 | 17.0 | 0.00 | 0.00 | 0.00 | 78 | 974.9 |
| 20260506031854 | 58 | 0 | 9.0 | 13.0 | 0.00 | 0.00 | 0.00 | 78 | 974.9 |
| 20260506031353 | 58 | 349 | 7.0 | 13.0 | 0.00 | 0.00 | 0.00 | 79 | 974.8 |
| 20260506030854 | 58 | 67 | 5.0 | 12.0 | 0.00 | 0.00 | 0.00 | 79 | 974.9 |
| 20260506030352 | 58 | 340 | 4.0 | 11.0 | 0.00 | 0.00 | 0.00 | 79 | 974.6 |
| 20260506025853 | 58 | 355 | 4.0 | 9.0 | 0.00 | 0.00 | 0.00 | 78 | 974.5 |
| 20260506025353 | 58 | 76 | 3.0 | 9.0 | 0.00 | 0.00 | 0.00 | 78 | 974.6 |
| 20260506024852 | 58 | 90 | 3.0 | 10.0 | 0.00 | 0.00 | 0.00 | 78 | 974.5 |
| 20260506023853 | 58 | 0 | 5.0 | 12.0 | 0.00 | 0.00 | 0.00 | 78 | 974.5 |
| 20260506022848 | 59 | 0 | 5.0 | 12.0 | 0.00 | 0.00 | 0.00 | 78 | 974.3 |
| 20260506022352 | 59 | 355 | 6.0 | 12.0 | 0.00 | 0.00 | 0.00 | 78 | 974.0 |
| 20260506021846 | 59 | 47 | 7.0 | 13.0 | 0.00 | 0.00 | 0.00 | 78 | 973.6 |
| 20260506021341 | 59 | 49 | 8.0 | 13.0 | 0.00 | 0.00 | 0.00 | 78 | 973.0 |
| 20260506020328 | 59 | 355 | 9.0 | 15.0 | 0.00 | 0.00 | 0.00 | 77 | 972.5 |
| 20260506015822 | 60 | 64 | 10.0 | 15.0 | 0.00 | 0.00 | 0.00 | 77 | 972.3 |
| 20260506015316 | 60 | 93 | 11.0 | 16.0 | 0.00 | 0.00 | 0.00 | 77 | 972.3 |
| 20260506014810 | 60 | 0 | 10.0 | 17.0 | 0.00 | 0.00 | 0.00 | 77 | 972.2 |
| 20260506014304 | 60 | 0 | 10.0 | 19.0 | 0.00 | 0.00 | 0.00 | 77 | 972.1 |
| 20260506013759 | 61 | 0 | 10.0 | 19.0 | 0.00 | 0.00 | 0.00 | 76 | 972.0 |
| 20260506013252 | 61 | 0 | 10.0 | 17.0 | 0.00 | 0.00 | 0.00 | 76 | 972.0 |
| 20260506012245 | 62 | 71 | 10.0 | 19.0 | 0.00 | 0.00 | 0.00 | 75 | 971.7 |
| 20260506011744 | 62 | 67 | 9.0 | 16.0 | 0.00 | 0.00 | 0.00 | 75 | 971.6 |
| 20260506011245 | 62 | 55 | 9.0 | 16.0 | 0.00 | 0.00 | 0.00 | 75 | 971.5 |
| 20260506010745 | 63 | 51 | 9.0 | 16.0 | 0.00 | 0.00 | 0.00 | 74 | 971.5 |
| 20260506010244 | 63 | 0 | 11.0 | 18.0 | 0.00 | 0.00 | 0.00 | 74 | 971.6 |
| 20260506005244 | 64 | 71 | 11.0 | 16.0 | 0.00 | 0.00 | 0.00 | 73 | 971.1 |
| 20260506004745 | 65 | 0 | 9.0 | 16.0 | 0.00 | 0.00 | 0.00 | 73 | 971.3 |
| 20260506004245 | 65 | 0 | 7.0 | 15.0 | 0.00 | 0.00 | 0.00 | 73 | 971.4 |
| 20260506003740 | 65 | 0 | 7.0 | 13.0 | 0.00 | 0.00 | 0.00 | 73 | 971.5 |
| 20260506003241 | 65 | 0 | 7.0 | 14.0 | 0.00 | 0.00 | 0.00 | 73 | 971.3 |
| 20260506002740 | 65 | 0 | 7.0 | 14.0 | 0.00 | 0.00 | 0.00 | 72 | 971.3 |
| 20260506002240 | 66 | 0 | 7.0 | 14.0 | 0.00 | 0.00 | 0.00 | 72 | 971.1 |
| 20260506001740 | 66 | 0 | 8.0 | 15.0 | 0.00 | 0.00 | 0.00 | 72 | 971.1 |
| 20260506001240 | 66 | 348 | 8.0 | 16.0 | 0.00 | 0.00 | 0.00 | 72 | 971.3 |
| 20260506000740 | 66 | 0 | 8.0 | 16.0 | 0.00 | 0.00 | 0.00 | 72 | 971.0 |
| 20260506000240 | 67 | 0 | 7.0 | 16.0 | 0.00 | 0.00 | 0.00 | 72 | 971.3 |
| 20260505235740 | 67 | 0 | 6.0 | 14.0 | 0.00 | 0.00 | 0.00 | 72 | 971.1 |
| 20260505235238 | 67 | 0 | 8.0 | 14.0 | 0.00 | 0.00 | 0.00 | 71 | 971.0 |
| 20260505234739 | 67 | 0 | 9.0 | 16.0 | 0.00 | 0.00 | 0.00 | 71 | 970.8 |
| 20260505234238 | 67 | 0 | 9.0 | 16.0 | 0.00 | 0.00 | 0.00 | 71 | 971.0 |
| 20260505233738 | 67 | 330 | 9.0 | 16.0 | 0.00 | 0.00 | 0.00 | 71 | 971.1 |
| 20260505233239 | 67 | 0 | 9.0 | 18.0 | 0.00 | 0.00 | 0.00 | 70 | 971.2 |
| 20260505232239 | 67 | 0 | 9.0 | 16.0 | 0.00 | 0.00 | 0.00 | 70 | 971.0 |
| 20260505231739 | 68 | 336 | 9.0 | 15.0 | 0.00 | 0.00 | 0.00 | 69 | 970.8 |
| 20260505231238 | 68 | 0 | 9.0 | 15.0 | 0.00 | 0.00 | 0.00 | 70 | 970.9 |
| 20260505230742 | 69 | 0 | 10.0 | 21.0 | 0.00 | 0.00 | 0.00 | 69 | 970.7 |
| 20260505230242 | 70 | 0 | 10.0 | 21.0 | 0.00 | 0.00 | 0.00 | 68 | 970.8 |
| 20260505225743 | 71 | 315 | 9.0 | 21.0 | 0.00 | 0.00 | 0.00 | 68 | 970.8 |
| 20260505225242 | 71 | 347 | 7.0 | 16.0 | 0.00 | 0.00 | 0.00 | 68 | 970.7 |
| 20260505224737 | 71 | 307 | 7.0 | 16.0 | 0.00 | 0.00 | 0.00 | 67 | 970.7 |
| 20260505224236 | 71 | 328 | 6.0 | 16.0 | 0.00 | 0.00 | 0.00 | 68 | 970.7 |
| 20260505223736 | 71 | 329 | 8.0 | 18.0 | 0.00 | 0.00 | 0.00 | 67 | 970.7 |
| 20260505223236 | 72 | 319 | 9.0 | 19.0 | 0.00 | 0.00 | 0.00 | 67 | 970.8 |
| 20260505222736 | 72 | 327 | 8.0 | 19.0 | 0.00 | 0.00 | 0.00 | 66 | 970.7 |
| 20260505222237 | 72 | 305 | 9.0 | 18.0 | 0.00 | 0.00 | 0.00 | 68 | 970.5 |
| 20260505221737 | 73 | 344 | 9.0 | 18.0 | 0.00 | 0.00 | 0.00 | 67 | 970.4 |
| 20260505221236 | 73 | 338 | 7.0 | 16.0 | 0.00 | 0.00 | 0.00 | 66 | 970.3 |
| 20260505215736 | 74 | 355 | 9.0 | 17.0 | 0.00 | 0.00 | 0.00 | 65 | 970.2 |
| 20260505215237 | 74 | 355 | 9.0 | 17.0 | 0.00 | 0.00 | 0.00 | 66 | 970.1 |
| 20260505214736 | 74 | 316 | 9.0 | 16.0 | 0.00 | 0.00 | 0.00 | 66 | 970.0 |
| 20260505214236 | 74 | 0 | 9.0 | 16.0 | 0.00 | 0.00 | 0.00 | 65 | 970.1 |
| 20260505213736 | 75 | 311 | 9.0 | 16.0 | 0.00 | 0.00 | 0.00 | 65 | 970.1 |
| 20260505213236 | 76 | 309 | 8.0 | 15.0 | 0.00 | 0.00 | 0.00 | 63 | 970.0 |
| 20260505212729 | 77 | 344 | 8.0 | 15.0 | 0.00 | 0.00 | 0.00 | 64 | 969.9 |
| 20260505212224 | 76 | 298 | 8.0 | 15.0 | 0.00 | 0.00 | 0.00 | 64 | 969.8 |
| 20260505211212 | 76 | 341 | 7.0 | 14.0 | 0.00 | 0.00 | 0.00 | 63 | 970.0 |
| 20260505210706 | 77 | 336 | 7.0 | 15.0 | 0.00 | 0.00 | 0.00 | 63 | 970.1 |
| 20260505210159 | 78 | 296 | 7.0 | 15.0 | 0.00 | 0.00 | 0.00 | 61 | 970.2 |
| 20260505205653 | 79 | 312 | 8.0 | 18.0 | 0.00 | 0.00 | 0.00 | 60 | 970.1 |
| 20260505205147 | 79 | 309 | 9.0 | 18.0 | 0.00 | 0.00 | 0.00 | 60 | 970.2 |
| 20260505204641 | 80 | 305 | 9.0 | 17.0 | 0.00 | 0.00 | 0.00 | 60 | 970.2 |
| 20260505204135 | 80 | 282 | 9.0 | 17.0 | 0.00 | 0.00 | 0.00 | 60 | 970.3 |
| 20260505203630 | 80 | 315 | 9.0 | 17.0 | 0.00 | 0.00 | 0.00 | 61 | 970.2 |
| 20260505203124 | 80 | 308 | 9.0 | 17.0 | 0.00 | 0.00 | 0.00 | 60 | 970.3 |
| 20260505202618 | 81 | 300 | 9.0 | 14.0 | 0.00 | 0.00 | 0.00 | 60 | 970.0 |
| 20260505202112 | 81 | 333 | 10.0 | 17.0 | 0.00 | 0.00 | 0.00 | 59 | 970.0 |
| 20260505201606 | 81 | 309 | 10.0 | 17.0 | 0.00 | 0.00 | 0.00 | 59 | 970.0 |
| 20260505200554 | 82 | 289 | 11.0 | 19.0 | 0.00 | 0.00 | 0.00 | 58 | 970.0 |
| 20260505200047 | 83 | 327 | 11.0 | 19.0 | 0.00 | 0.00 | 0.00 | 56 | 969.9 |
| 20260505195541 | 83 | 271 | 10.0 | 17.0 | 0.00 | 0.00 | 0.00 | 55 | 969.8 |
| 20260505195036 | 83 | 348 | 10.0 | 17.0 | 0.00 | 0.00 | 0.00 | 55 | 969.7 |
| 20260505194530 | 83 | 279 | 9.0 | 17.0 | 0.00 | 0.00 | 0.00 | 54 | 969.7 |
| 20260505194024 | 82 | 326 | 9.0 | 17.0 | 0.00 | 0.00 | 0.00 | 53 | 969.7 |
| 20260505193518 | 81 | 278 | 10.0 | 17.0 | 0.00 | 0.00 | 0.00 | 51 | 969.7 |
| 20260505193012 | 81 | 305 | 8.0 | 17.0 | 0.00 | 0.00 | 0.00 | 48 | 969.8 |
| 20260505192505 | 82 | 294 | 8.0 | 16.0 | 0.00 | 0.00 | 0.00 | 46 | 969.9 |
| 20260505191959 | 82 | 270 | 8.0 | 15.0 | 0.00 | 0.00 | 0.00 | 46 | 969.8 |
| 20260505191454 | 82 | 296 | 9.0 | 19.0 | 0.00 | 0.00 | 0.00 | 47 | 969.6 |
| 20260505190443 | 83 | 281 | 9.0 | 17.0 | 0.00 | 0.00 | 0.00 | 45 | 969.5 |
| 20260505185936 | 83 | 292 | 10.0 | 17.0 | 0.00 | 0.00 | 0.00 | 51 | 969.5 |
| 20260505185430 | 83 | 241 | 10.0 | 19.0 | 0.00 | 0.00 | 0.00 | 59 | 969.3 |
| 20260505184928 | 83 | 242 | 9.0 | 19.0 | 0.00 | 0.00 | 0.00 | 59 | 969.2 |
| 20260505184428 | 83 | 205 | 7.0 | 18.0 | 0.00 | 0.00 | 0.00 | 60 | 969.1 |
| 20260505183926 | 83 | 241 | 7.0 | 17.0 | 0.00 | 0.00 | 0.00 | 59 | 969.2 |
| 20260505183427 | 83 | 231 | 9.0 | 17.0 | 0.00 | 0.00 | 0.00 | 60 | 969.1 |
| 20260505182926 | 83 | 251 | 9.0 | 18.0 | 0.00 | 0.00 | 0.00 | 59 | 969.1 |
| 20260505182424 | 83 | 243 | 8.0 | 18.0 | 0.00 | 0.00 | 0.00 | 59 | 969.2 |
| 20260505181924 | 83 | 213 | 9.0 | 16.0 | 0.00 | 0.00 | 0.00 | 58 | 969.3 |
| 20260505181424 | 83 | 236 | 9.0 | 16.0 | 0.00 | 0.00 | 0.00 | 58 | 969.1 |
| 20260505180420 | 83 | 223 | 7.0 | 15.0 | 0.00 | 0.00 | 0.00 | 61 | 969.1 |
| 20260505175420 | 82 | 208 | 7.0 | 15.0 | 0.00 | 0.00 | 0.00 | 62 | 969.1 |
| 20260505173921 | 83 | 238 | 7.0 | 15.0 | 0.00 | 0.00 | 0.00 | 64 | 969.0 |
| 20260505173418 | 82 | 223 | 6.0 | 11.0 | 0.00 | 0.00 | 0.00 | 65 | 969.1 |
| 20260505172918 | 81 | 198 | 7.0 | 14.0 | 0.00 | 0.00 | 0.00 | 66 | 969.1 |
| 20260505172415 | 81 | 203 | 7.0 | 17.0 | 0.00 | 0.00 | 0.00 | 66 | 969.1 |
| 20260505171916 | 81 | 228 | 8.0 | 17.0 | 0.00 | 0.00 | 0.00 | 66 | 968.9 |
| 20260505171410 | 80 | 222 | 9.0 | 19.0 | 0.00 | 0.00 | 0.00 | 67 | 968.9 |
| 20260505170905 | 80 | 202 | 9.0 | 19.0 | 0.00 | 0.00 | 0.00 | 68 | 969.1 |
| 20260505170406 | 80 | 207 | 8.0 | 17.0 | 0.00 | 0.00 | 0.00 | 67 | 968.9 |
| 20260505165905 | 80 | 217 | 7.0 | 17.0 | 0.00 | 0.00 | 0.00 | 68 | 968.7 |
| 20260505165403 | 79 | 211 | 7.0 | 17.0 | 0.00 | 0.00 | 0.00 | 68 | 968.7 |
| 20260505164404 | 78 | 234 | 10.0 | 21.0 | 0.00 | 0.00 | 0.00 | 69 | 969.0 |
| 20260505163904 | 78 | 220 | 9.0 | 21.0 | 0.00 | 0.00 | 0.00 | 69 | 969.1 |
| 20260505163404 | 78 | 224 | 8.0 | 16.0 | 0.00 | 0.00 | 0.00 | 70 | 968.3 |
| 20260505162903 | 77 | 196 | 9.0 | 16.0 | 0.00 | 0.00 | 0.00 | 70 | 968.5 |
| 20260505162404 | 77 | 236 | 9.0 | 16.0 | 0.00 | 0.00 | 0.00 | 70 | 968.5 |
| 20260505161904 | 77 | 232 | 9.0 | 15.0 | 0.00 | 0.00 | 0.00 | 70 | 968.6 |
| 20260505160859 | 77 | 0 | 11.0 | 17.0 | 0.00 | 0.00 | 0.00 | 71 | 968.4 |
| 20260505160400 | 76 | 0 | 12.0 | 16.0 | 0.00 | 0.00 | 0.00 | 71 | 968.6 |
| 20260505153359 | 76 | 256 | 11.0 | 18.0 | 0.00 | 0.00 | 0.00 | 71 | 968.2 |
| 20260505152356 | 76 | 0 | 10.0 | 19.0 | 0.00 | 0.00 | 0.00 | 71 | 968.1 |
| 20260505151856 | 76 | 221 | 10.0 | 19.0 | 0.00 | 0.00 | 0.00 | 71 | 968.1 |
| 20260505151355 | 76 | 227 | 10.0 | 19.0 | 0.00 | 0.00 | 0.00 | 72 | 968.0 |
| 20260505150855 | 76 | 208 | 12.0 | 22.0 | 0.00 | 0.00 | 0.00 | 72 | 968.1 |
| 20260505150356 | 76 | 217 | 12.0 | 22.0 | 0.00 | 0.00 | 0.00 | 72 | 968.0 |
| 20260505124826 | 69 | 234 | 10.0 | 18.0 | 0.00 | 0.00 | 0.00 | 82 | 967.7 |
| 20260505124320 | 69 | 237 | 10.0 | 18.0 | 0.00 | 0.00 | 0.00 | 82 | 967.7 |
| 20260505123814 | 69 | 202 | 10.0 | 18.0 | 0.00 | 0.00 | 0.00 | 82 | 967.7 |
| 20260505123308 | 69 | 234 | 9.0 | 18.0 | 0.00 | 0.00 | 0.00 | 83 | 967.5 |
| 20260505122802 | 69 | 239 | 8.0 | 16.0 | 0.00 | 0.00 | 0.00 | 83 | 967.4 |
| 20260505122257 | 69 | 230 | 8.0 | 18.0 | 0.00 | 0.00 | 0.00 | 83 | 967.4 |
| 20260505121750 | 68 | 211 | 9.0 | 18.0 | 0.00 | 0.00 | 0.00 | 83 | 967.4 |
| 20260505120738 | 68 | 180 | 7.0 | 17.0 | 0.00 | 0.00 | 0.00 | 83 | 967.3 |
| 20260505115727 | 68 | 238 | 6.0 | 15.0 | 0.00 | 0.00 | 0.00 | 83 | 967.2 |
| 20260505115221 | 68 | 227 | 6.0 | 15.0 | 0.00 | 0.00 | 0.00 | 83 | 967.1 |
| 20260505114714 | 68 | 223 | 6.0 | 13.0 | 0.00 | 0.00 | 0.00 | 83 | 967.1 |
| 20260505114209 | 68 | 225 | 6.0 | 13.0 | 0.00 | 0.00 | 0.00 | 83 | 967.1 |
| 20260505113703 | 68 | 213 | 6.0 | 13.0 | 0.00 | 0.00 | 0.00 | 83 | 967.0 |
| 20260505113156 | 68 | 211 | 6.0 | 13.0 | 0.00 | 0.00 | 0.00 | 83 | 967.0 |
| 20260505112651 | 68 | 240 | 6.0 | 11.0 | 0.00 | 0.00 | 0.00 | 83 | 967.0 |
| 20260505112144 | 68 | 218 | 6.0 | 11.0 | 0.00 | 0.00 | 0.00 | 83 | 967.0 |
| 20260505111638 | 68 | 229 | 6.0 | 11.0 | 0.00 | 0.00 | 0.00 | 83 | 967.2 |
| 20260505111132 | 68 | 232 | 6.0 | 11.0 | 0.00 | 0.00 | 0.00 | 83 | 967.1 |
| 20260505110121 | 68 | 219 | 6.0 | 14.0 | 0.00 | 0.00 | 0.00 | 83 | 967.0 |
| 20260505101016 | 69 | 194 | 7.0 | 14.0 | 0.00 | 0.00 | 0.00 | 82 | 967.1 |
| 20260505100511 | 69 | 213 | 7.0 | 11.0 | 0.00 | 0.00 | 0.00 | 81 | 967.2 |
| 20260505100004 | 69 | 223 | 6.0 | 11.0 | 0.00 | 0.00 | 0.00 | 81 | 967.3 |
| 20260505094501 | 69 | 192 | 7.0 | 11.0 | 0.00 | 0.00 | 0.00 | 81 | 967.0 |
| 20260505094000 | 69 | 215 | 7.0 | 10.0 | 0.00 | 0.00 | 0.00 | 81 | 967.2 |
| 20260505093501 | 69 | 207 | 7.0 | 10.0 | 0.00 | 0.00 | 0.00 | 80 | 967.3 |
| 20260505093002 | 69 | 205 | 7.0 | 10.0 | 0.00 | 0.00 | 0.00 | 80 | 967.2 |
| 20260505092501 | 69 | 217 | 7.0 | 13.0 | 0.00 | 0.00 | 0.00 | 80 | 967.2 |
| 20260505092001 | 69 | 207 | 8.0 | 13.0 | 0.00 | 0.00 | 0.00 | 80 | 967.2 |
| 20260505091501 | 69 | 188 | 8.0 | 12.0 | 0.00 | 0.00 | 0.00 | 80 | 967.2 |
| 20260505091001 | 70 | 199 | 8.0 | 12.0 | 0.00 | 0.00 | 0.00 | 80 | 967.3 |
| 20260505090458 | 70 | 188 | 7.0 | 11.0 | 0.00 | 0.00 | 0.00 | 79 | 967.3 |
| 20260505090000 | 70 | 203 | 7.0 | 10.0 | 0.00 | 0.00 | 0.00 | 79 | 967.3 |
| 20260505085459 | 70 | 183 | 7.0 | 10.0 | 0.00 | 0.00 | 0.00 | 79 | 967.3 |